Back to catalog

STARLINK-3575

AliveCommunicationsVLEO
NORAD 51878·PAYLOAD·🇺🇸 United States

Launched Mar 3, 2022 from Cape Canaveral Space Force Station

Loading…

Next Passes (next 24 hours)

TLE

FreshSource: CelesTrak SupGP

Epoch: Sep 14, 2026, 13:56 UTC

1 51878C 22022AC  26257.58104167 -.00052625  00000+0 -15060-2 0  2573
2 51878  53.1571 231.9475 0001279  86.2799 350.9094 15.35418408    14

Track STARLINK-3575 in real time with AllMySat

Download on the App Store